Location: Indian Springs
(36.5700°N, 115.6700°W)
Time: 09:30:09
(UTC-08:00)

Daily predictions for brighter satellites

Satellite Brightness Start Highest point End
(mag) Time Altitude Azimuth Time Altitude Azimuth Time Altitude Azimuth
ALOS 3.4 17:54:19 10° ESE 17:57:54 22° ENE 18:01:29 10° NNE
ASTRO E2 4.2 17:57:52 10° WSW 18:01:27 30° SSW 18:05:01 10° SE
ATLAS 2A CENTAUR R/B 3.1 18:00:39 10° SSW 18:02:08 14° SSE 18:04:31 10° SE
Cosmos 1536 Rocket 4.3 17:59:18 10° NNE 18:03:20 32° ENE 18:07:20 10° SE
Cosmos 1818 3.6 18:01:35 10° SSW 18:06:58 69° ESE 18:12:24 10° NE
Cosmos 1484 Rocket 4.1 18:03:17 10° S 18:07:06 46° W 18:10:55 10° NNW
SJ-6B 3.3 18:04:45 10° SE 18:08:30 38° ENE 18:12:11 10° N
ERBS 4.3 18:06:21 10° WNW 18:09:28 31° SW 18:12:33 10° S
BREEZE-M DEB (TANK) 3.9 18:07:55 10° N 18:09:41 16° NE 18:12:05 11° ENE
Meteor 1-18 Rocket 4.2 18:06:03 10° N 18:11:37 81° E 18:17:14 10° S
SL-16 R/B 2.2 18:09:13 10° NNW 18:14:54 73° ENE 18:20:33 10° SSE
Resurs 01 Rocket 2.6 18:12:47 10° SE 18:16:22 25° ENE 18:19:57 10° NNE
Cosmos 1340 3.5 18:13:42 10° NNE 18:17:02 29° ENE 18:20:20 10° SE
TSX-5 3.3 18:14:32 10° S 18:17:42 52° ESE 18:20:48 10° NE
Nadezhda 1 Rocket 4.0 18:13:37 10° N 18:19:43 83° W 18:25:46 10° S
Cosmos 407 Rocket 3.6 18:14:53 10° SSW 18:20:06 81° WNW 18:25:26 10° NNE
DNEPR-1 R/B 3.4 18:16:27 10° NNW 18:20:39 64° ENE 18:24:54 10° SE
Cosmos 676 Rocket 3.9 18:17:11 10° S 18:22:20 72° ESE 18:27:32 10° NNE
Cosmos 1238 Rocket 3.2 18:20:21 10° NNE 18:22:48 22° ENE 18:24:54 12° SE
Gbstr 26 Del rocket 3.2 18:20:30 10° SSW 18:24:09 39° SE 18:26:33 18° ENE
Tiangong 2 1.4 18:21:49 10° WNW 18:24:49 49° NNE 18:26:33 21° E
DELTA 2 R/B (1) 3.7 18:19:29 10° WNW 18:25:06 69° N 18:29:26 17° E
BREEZE-M DEB (TANK) 3.3 18:20:36 10° NW 18:28:48 66° NNE 18:30:58 19° ESE
Cosmos 1300 Rocket 3.7 18:27:50 10° SSE 18:32:04 50° E 18:36:21 10° NNE
Cosmos 2322 Rocket 2.4 18:27:08 10° NNW 18:32:45 77° WSW 18:38:20 10° SSE
Cosmos 1536 3.7 18:29:47 10° SSE 18:33:12 27° E 18:36:36 10° NNE
Cosmos 2181 Rocket 4.1 18:28:02 10° N 18:34:08 54° E 18:40:18 10° SSE
CZ-2D R/B 4.2 18:38:26 25° E 18:38:44 25° ENE 18:41:54 10° NNE
Resurs 1-3 4.1 18:34:49 10° SE 18:38:49 36° ENE 18:42:51 10° N
Meteor 1-13 Rocket 4.2 18:35:03 10° N 18:40:32 58° E 18:46:05 10° SSE
Okean 1 3.6 18:37:18 10° NNW 18:41:21 71° W 18:45:23 10° S
Cosmos 1140 Rocket 3.4 18:39:58 10° S 18:45:02 69° ESE 18:50:10 10° NNE
Cosmos 1461 2.9 18:41:22 10° NNW 18:45:24 79° WSW 18:49:31 10° SSE
Cosmos 2322 4.0 18:40:08 10° N 18:45:36 44° ENE 18:49:34 18° SE
ATLAS CENTAUR R/B 3.5 18:42:16 10° S 18:45:54 18° SE 18:45:58 18° SE
FENGYUN 3A 3.6 18:40:40 10° SSE 18:46:02 70° ENE 18:51:26 10° N
H-2A R/B 2.9 18:45:20 18° SE 18:47:46 43° ENE 18:51:20 10° N
Cosmos 2074 Rocket 4.3 18:44:21 10° SSE 18:50:09 42° E 18:56:00 10° NNE
Cosmos 1709 Rocket 4.1 18:44:38 10° S 18:50:52 78° W 18:57:05 10° N
Cosmos 2184 Rocket 4.3 18:45:05 10° SSE 18:50:57 41° E 18:56:47 10° NNE
SAR-Lupe-4 4.5 18:54:59 31° NE 18:54:59 31° NE 18:57:26 10° N
SL-19 R/B 4.2 18:48:41 10° SSE 18:54:14 70° ENE 19:00:07 10° N
Spot 2 Rocket 3.4 18:49:54 10° SSE 18:54:52 65° ENE 18:59:54 10° N
Cosmos 614 Rocket 3.8 18:52:13 10° S 18:57:15 67° ESE 19:02:18 10° NNE
Helios 1A 3.6 18:58:08 35° ENE 18:58:08 35° ENE 19:01:32 10° N
COSMOS 2428 3.5 18:53:40 10° N 18:58:36 30° ENE 18:59:03 29° ENE
Meteor 2-4 Rocket 3.7 18:54:21 10° N 18:59:46 52° ENE 19:04:57 10° SSE
HJ-1C 3.8 18:59:30 10° S 19:02:50 61° W 19:06:11 10° NNW
Okean 1 Rocket 3.0 18:58:36 10° S 19:03:04 87° E 19:07:35 10° N
Cosmos 1850 Rocket 3.9 18:58:55 10° S 19:04:08 65° ESE 19:09:25 10° NNE
GPS 2-04 Rocket1 3.7 19:01:03 10° SW 19:04:58 34° SSE 19:05:18 34° SSE
Abrixas rocket 4.0 19:04:12 10° SSW 19:05:50 22° S 19:05:50 22° S
Cosmos 2237 Rocket 4.3 19:05:20 10° NNE 19:05:44 11° NNE 19:05:44 11° NNE
Envisat 4.4 19:13:16 22° NNE 19:13:16 22° NNE 19:15:33 10° N
Meteor 1-11 Rocket 4.0 19:07:16 10° SSW 19:12:59 71° W 19:18:52 10° N
USA 229 DEB 4.4 19:12:27 10° NNW 19:18:54 35° NE 19:19:44 34° ENE
USA 229 4.4 19:12:33 10° NNW 19:19:00 35° NE 19:19:49 34° ENE
Cosmos 2219 3.1 19:13:44 10° SSW 19:19:26 71° ESE 19:23:09 23° NNE
Cosmos 2285 Rocket 4.5 19:13:37 10° N 19:19:33 39° ENE 19:19:33 39° ENE
Helios 1B rocket 2.3 19:20:32 80° ESE 19:20:32 80° ESE 19:24:40 10° S
Okean 1-7 Rocket 3.5 19:20:05 10° N 19:24:39 90° SSE 19:25:47 50° S
Cosmos 2360 Rocket 2.3 19:19:14 10° NNW 19:24:53 75° WSW 19:28:57 19° SSE
Cosmos 2219 Rocket 3.6 19:23:05 10° N 19:25:54 23° NNE 19:25:54 23° NNE
OAO 3 Copernicus 4.5 19:25:30 10° W 19:30:30 59° SSW 19:30:52 57° S
Cosmos 1025 Rocket 3.9 19:29:37 10° N 19:32:29 40° N 19:32:29 40° N
ALOS 4.0 19:30:57 10° SSW 19:35:07 32° W 19:39:19 10° NNW
BREEZE-M DEB (TANK) 4.4 19:36:56 10° WSW 19:39:12 27° W 19:39:12 27° W
Meteor 2-13 Rocket 4.3 19:38:35 10° S 19:45:02 73° NE 19:50:42 10° N
Resurs 01 Rocket 3.7 19:49:04 10° SSW 19:52:44 25° W 19:56:24 10° NW
Cosmos 2333 Rocket 3.8 19:48:41 10° N 19:51:05 23° N 19:51:05 23° N
BREEZE-M DEB (TANK) 4.2 19:52:47 10° NW 19:56:45 64° NNE 19:56:45 64° NNE
DELTA 2 R/B (1) 4.4 20:06:04 10° WNW 20:10:13 46° WSW 20:10:13 46° WSW
COSMOS 2428 4.4 20:37:45 10° NW 20:41:08 29° WNW 20:41:08 29° WNW
